| time (UTC) | temp F | wind direction | speed MPH | gust MPH | rain 1hr in | rain 24hr in | rain mn in | humidity % | barometer mb |
| 20260510022043 | 46 | 203 | 0.0 | 0.0 | 0.00 | 0.46 | 0.46 | 99 | 1007.0 |
| 20260510021540 | 46 | 204 | 0.0 | 0.0 | 0.00 | 0.46 | 0.46 | 99 | 1007.1 |
| 20260510021038 | 46 | 224 | 0.0 | 0.0 | 0.00 | 0.46 | 0.46 | 99 | 1006.9 |
| 20260510020532 | 46 | 222 | 0.0 | 0.0 | 0.00 | 0.46 | 0.46 | 99 | 1006.9 |
| 20260510020028 | 47 | 205 | 0.0 | 0.0 | 0.00 | 0.46 | 0.46 | 99 | 1006.6 |
| 20260510015524 | 47 | 218 | 0.0 | 0.0 | 0.00 | 0.46 | 0.46 | 99 | 1006.6 |
| 20260510015020 | 47 | 181 | 2.0 | 3.0 | 0.00 | 0.46 | 0.46 | 99 | 1006.6 |
| 20260510014516 | 46 | 190 | 0.0 | 0.0 | 0.00 | 0.46 | 0.46 | 99 | 1007.0 |
| 20260510014014 | 46 | 178 | 0.0 | 0.0 | 0.00 | 0.46 | 0.46 | 99 | 1006.9 |
| 20260510013508 | 46 | 198 | 0.0 | 0.0 | 0.00 | 0.46 | 0.46 | 99 | 1007.1 |
| 20260510013004 | 46 | 181 | 0.0 | 1.0 | 0.00 | 0.46 | 0.46 | 99 | 1007.0 |
| 20260510012458 | 46 | 198 | 0.0 | 1.0 | 0.00 | 0.46 | 0.46 | 99 | 1006.9 |
| 20260510011954 | 46 | 214 | 0.0 | 0.0 | 0.00 | 0.46 | 0.46 | 99 | 1006.9 |
| 20260510011449 | 46 | 201 | 0.0 | 1.0 | 0.00 | 0.46 | 0.46 | 99 | 1007.0 |
| 20260510010945 | 46 | 188 | 0.0 | 0.0 | 0.00 | 0.46 | 0.46 | 99 | 1006.8 |
| 20260510010443 | 47 | 195 | 0.0 | 2.0 | 0.00 | 0.46 | 0.46 | 99 | 1006.8 |
| 20260510005939 | 47 | 219 | 0.0 | 0.0 | 0.00 | 0.46 | 0.46 | 99 | 1006.8 |
| 20260510005435 | 47 | 216 | 0.0 | 0.0 | 0.00 | 0.46 | 0.46 | 99 | 1006.4 |
| 20260510004933 | 47 | 202 | 0.0 | 0.0 | 0.00 | 0.46 | 0.46 | 99 | 1006.3 |
| 20260510004430 | 47 | 215 | 0.0 | 1.0 | 0.00 | 0.46 | 0.46 | 99 | 1006.4 |
| 20260510003928 | 48 | 209 | 0.0 | 0.0 | 0.00 | 0.46 | 0.46 | 99 | 1006.4 |
| 20260510003425 | 48 | 175 | 0.0 | 0.0 | 0.00 | 0.46 | 0.46 | 99 | 1006.5 |
| 20260510002924 | 48 | 199 | 0.0 | 2.0 | 0.00 | 0.46 | 0.46 | 99 | 1006.5 |
| 20260510002421 | 48 | 337 | 2.0 | 2.0 | 0.00 | 0.46 | 0.46 | 99 | 1006.6 |
| 20260510001918 | 48 | 195 | 0.0 | 1.0 | 0.00 | 0.46 | 0.46 | 99 | 1006.6 |
| 20260510001415 | 49 | 220 | 0.0 | 1.0 | 0.00 | 0.46 | 0.46 | 99 | 1006.4 |
| 20260510000912 | 49 | 207 | 0.0 | 2.0 | 0.00 | 0.46 | 0.46 | 99 | 1006.3 |
| 20260510000411 | 49 | 118 | 0.0 | 2.0 | 0.00 | 0.46 | 0.46 | 99 | 1006.2 |
| 20260509235905 | 49 | 133 | 1.0 | 2.0 | 0.00 | 0.46 | 0.46 | 99 | 1006.1 |
| 20260509235402 | 49 | 199 | 0.0 | 0.0 | 0.00 | 0.46 | 0.46 | 99 | 1006.0 |
| 20260509234858 | 49 | 198 | 0.0 | 0.0 | 0.00 | 0.46 | 0.46 | 99 | 1006.1 |
| 20260509234355 | 49 | 205 | 0.0 | 0.0 | 0.00 | 0.46 | 0.46 | 99 | 1005.7 |
| 20260509233853 | 50 | 169 | 1.0 | 2.0 | 0.00 | 0.46 | 0.46 | 99 | 1005.5 |
| 20260509233351 | 50 | 222 | 0.0 | 0.0 | 0.00 | 0.46 | 0.46 | 99 | 1005.5 |
| 20260509232846 | 50 | 166 | 0.0 | 1.0 | 0.00 | 0.46 | 0.46 | 99 | 1005.6 |
| 20260509232345 | 50 | 188 | 0.0 | 1.0 | 0.00 | 0.46 | 0.46 | 99 | 1005.8 |
| 20260509231840 | 50 | 152 | 0.0 | 1.0 | 0.00 | 0.46 | 0.46 | 99 | 1005.8 |
| 20260509231337 | 49 | 218 | 0.0 | 1.0 | 0.00 | 0.46 | 0.46 | 99 | 1005.5 |
| 20260509230835 | 49 | 200 | 0.0 | 2.0 | 0.00 | 0.46 | 0.46 | 99 | 1005.8 |
| 20260509230332 | 49 | 158 | 2.0 | 2.0 | 0.00 | 0.46 | 0.46 | 99 | 1005.6 |
| 20260509225827 | 49 | 209 | 0.0 | 0.0 | 0.00 | 0.46 | 0.46 | 99 | 1005.6 |
| 20260509225324 | 49 | 202 | 0.0 | 0.0 | 0.00 | 0.46 | 0.46 | 99 | 1005.5 |
| 20260509224820 | 49 | 239 | 0.0 | 2.0 | 0.00 | 0.46 | 0.46 | 99 | 1005.5 |
| 20260509224316 | 49 | 226 | 1.0 | 2.0 | 0.00 | 0.46 | 0.46 | 99 | 1005.3 |
| 20260509223813 | 49 | 201 | 1.0 | 2.0 | 0.00 | 0.46 | 0.46 | 99 | 1005.5 |
| 20260509223310 | 49 | 208 | 1.0 | 3.0 | 0.00 | 0.46 | 0.46 | 99 | 1005.4 |
| 20260509222807 | 49 | 345 | 0.0 | 1.0 | 0.00 | 0.46 | 0.46 | 99 | 1005.1 |
| 20260509222306 | 49 | 231 | 0.0 | 2.0 | 0.00 | 0.46 | 0.46 | 99 | 1005.5 |
| 20260509221758 | 49 | 143 | 1.0 | 3.0 | 0.00 | 0.46 | 0.46 | 99 | 1005.7 |
| 20260509221255 | 49 | 113 | 0.0 | 3.0 | 0.00 | 0.46 | 0.46 | 99 | 1005.4 |
| 20260509220750 | 50 | 242 | 1.0 | 2.0 | 0.00 | 0.46 | 0.46 | 98 | 1005.6 |
| 20260509220247 | 50 | 102 | 0.0 | 2.0 | 0.00 | 0.46 | 0.46 | 98 | 1005.5 |
| 20260509215742 | 50 | 217 | 0.0 | 6.0 | 0.00 | 0.46 | 0.46 | 98 | 1005.8 |
| 20260509215239 | 50 | 180 | 1.0 | 2.0 | 0.00 | 0.46 | 0.46 | 98 | 1005.8 |
| 20260509214736 | 50 | 137 | 2.0 | 2.0 | 0.00 | 0.46 | 0.46 | 98 | 1005.8 |
| 20260509214234 | 50 | 154 | 0.0 | 3.0 | 0.00 | 0.46 | 0.46 | 98 | 1005.8 |
| 20260509213731 | 50 | 192 | 0.0 | 2.0 | 0.00 | 0.46 | 0.46 | 99 | 1005.9 |
| 20260509213226 | 50 | 232 | 0.0 | 2.0 | 0.00 | 0.46 | 0.46 | 98 | 1005.9 |
| 20260509212724 | 50 | 163 | 1.0 | 1.0 | 0.00 | 0.46 | 0.46 | 98 | 1006.1 |
| 20260509212220 | 50 | 18 | 0.0 | 3.0 | 0.00 | 0.46 | 0.46 | 98 | 1005.9 |
| 20260509211716 | 50 | 263 | 2.0 | 6.0 | 0.00 | 0.46 | 0.46 | 98 | 1005.9 |
| 20260509211213 | 50 | 55 | 1.0 | 6.0 | 0.00 | 0.46 | 0.46 | 98 | 1006.1 |
| 20260509210709 | 50 | 232 | 0.0 | 3.0 | 0.00 | 0.46 | 0.46 | 98 | 1005.8 |
| 20260509210208 | 50 | 92 | 2.0 | 3.0 | 0.00 | 0.46 | 0.46 | 98 | 1006.0 |
| 20260509205707 | 50 | 339 | 1.0 | 4.0 | 0.00 | 0.46 | 0.46 | 98 | 1005.8 |
| 20260509205206 | 50 | 249 | 1.0 | 2.0 | 0.00 | 0.46 | 0.46 | 98 | 1006.1 |
| 20260509204703 | 50 | 161 | 1.0 | 2.0 | 0.00 | 0.46 | 0.46 | 98 | 1006.0 |
| 20260509204159 | 49 | 292 | 2.0 | 3.0 | 0.00 | 0.46 | 0.46 | 98 | 1006.0 |
| 20260509203655 | 49 | 161 | 2.0 | 4.0 | 0.00 | 0.46 | 0.46 | 98 | 1006.1 |
| 20260509203154 | 49 | 25 | 0.0 | 6.0 | 0.00 | 0.46 | 0.46 | 98 | 1006.1 |
| 20260509202649 | 49 | 230 | 2.0 | 3.0 | 0.07 | 0.46 | 0.46 | 98 | 1006.1 |
| 20260509202144 | 49 | 202 | 3.0 | 6.0 | 0.07 | 0.46 | 0.46 | 99 | 1006.3 |
| 20260509201640 | 49 | 66 | 1.0 | 3.0 | 0.00 | 0.45 | 0.45 | 99 | 1006.1 |
| 20260509201137 | 49 | 102 | 2.0 | 3.0 | 0.00 | 0.45 | 0.45 | 99 | 1006.4 |
| 20260509200632 | 48 | 221 | 2.0 | 3.0 | 0.05 | 0.45 | 0.45 | 99 | 1006.1 |
| 20260509200123 | 48 | 305 | 1.0 | 7.0 | 0.05 | 0.45 | 0.45 | 99 | 1006.2 |
| 20260509195619 | 48 | 167 | 2.0 | 2.0 | 0.00 | 0.44 | 0.44 | 99 | 1006.3 |
| 20260509195114 | 48 | 227 | 0.0 | 2.0 | 0.00 | 0.44 | 0.44 | 99 | 1006.4 |
| 20260509194613 | 49 | 296 | 0.0 | 1.0 | 0.00 | 0.44 | 0.44 | 99 | 1006.6 |
| 20260509194111 | 48 | 205 | 0.0 | 2.0 | 0.00 | 0.44 | 0.44 | 99 | 1006.5 |
| 20260509193606 | 48 | 135 | 3.0 | 4.0 | 0.00 | 0.44 | 0.44 | 99 | 1006.6 |
| 20260509193057 | 48 | 92 | 2.0 | 6.0 | 0.00 | 0.44 | 0.44 | 99 | 1006.6 |
| 20260509192554 | 48 | 165 | 1.0 | 3.0 | 0.00 | 0.44 | 0.44 | 99 | 1006.6 |
| 20260509192048 | 48 | 160 | 1.0 | 3.0 | 0.07 | 0.44 | 0.44 | 99 | 1006.6 |
| 20260509191543 | 48 | 223 | 3.0 | 6.0 | 0.07 | 0.44 | 0.44 | 99 | 1006.9 |
| 20260509191039 | 48 | 206 | 4.0 | 7.0 | 0.00 | 0.43 | 0.43 | 99 | 1006.6 |
| 20260509190536 | 48 | 216 | 0.0 | 2.0 | 0.00 | 0.43 | 0.43 | 99 | 1006.9 |
| 20260509190034 | 48 | 328 | 2.0 | 3.0 | 0.05 | 0.43 | 0.43 | 99 | 1007.0 |
| 20260509185531 | 48 | 78 | 4.0 | 4.0 | 0.05 | 0.43 | 0.43 | 99 | 1006.9 |
| 20260509185027 | 48 | 125 | 1.0 | 4.0 | 0.00 | 0.42 | 0.42 | 99 | 1006.8 |
| 20260509184526 | 48 | 90 | 1.0 | 3.0 | 0.07 | 0.42 | 0.42 | 99 | 1006.8 |
| 20260509184022 | 48 | 86 | 0.0 | 6.0 | 0.07 | 0.42 | 0.42 | 99 | 1006.8 |
| 20260509183517 | 48 | 263 | 0.0 | 2.0 | 0.00 | 0.41 | 0.41 | 99 | 1006.8 |
| 20260509183013 | 48 | 147 | 0.0 | 2.0 | 0.05 | 0.41 | 0.41 | 99 | 1006.8 |
| 20260509182510 | 48 | 191 | 0.0 | 3.0 | 0.05 | 0.41 | 0.41 | 99 | 1006.6 |
| 20260509182007 | 48 | 277 | 0.0 | 3.0 | 0.00 | 0.40 | 0.40 | 99 | 1006.8 |
| 20260509181505 | 48 | 121 | 0.0 | 2.0 | 0.07 | 0.40 | 0.40 | 99 | 1006.5 |
| 20260509181003 | 48 | 336 | 2.0 | 4.0 | 0.07 | 0.40 | 0.40 | 99 | 1006.8 |
| 20260509180457 | 48 | 63 | 2.0 | 6.0 | 0.00 | 0.39 | 0.39 | 99 | 1006.6 |
| 20260509175955 | 48 | 37 | 1.0 | 4.0 | 0.00 | 0.39 | 0.39 | 99 | 1006.6 |
| 20260509175451 | 48 | 63 | 1.0 | 8.0 | 0.05 | 0.39 | 0.39 | 99 | 1006.5 |
| 20260509174947 | 48 | 214 | 0.0 | 3.0 | 0.05 | 0.39 | 0.39 | 99 | 1006.5 |
| 20260509174443 | 48 | 280 | 0.0 | 3.0 | 0.07 | 0.38 | 0.38 | 99 | 1006.5 |
| 20260509173938 | 48 | 209 | 0.0 | 4.0 | 0.07 | 0.38 | 0.38 | 99 | 1006.6 |
| 20260509173433 | 48 | 149 | 1.0 | 3.0 | 0.07 | 0.37 | 0.37 | 99 | 1006.5 |
| 20260509172930 | 48 | 192 | 1.0 | 4.0 | 0.07 | 0.37 | 0.37 | 99 | 1006.5 |
| 20260509172427 | 48 | 152 | 1.0 | 3.0 | 0.05 | 0.36 | 0.36 | 99 | 1006.4 |
| 20260509171923 | 48 | 241 | 1.0 | 2.0 | 0.05 | 0.36 | 0.36 | 99 | 1006.5 |
| 20260509171419 | 48 | 145 | 2.0 | 4.0 | 0.07 | 0.35 | 0.35 | 99 | 1006.9 |
| 20260509170915 | 48 | 80 | 1.0 | 2.0 | 0.12 | 0.35 | 0.35 | 99 | 1006.5 |
| 20260509170411 | 48 | 155 | 2.0 | 6.0 | 0.05 | 0.34 | 0.34 | 99 | 1006.8 |
| 20260509165907 | 48 | 227 | 0.0 | 3.0 | 0.07 | 0.33 | 0.33 | 99 | 1006.6 |
| 20260509165401 | 48 | 224 | 0.0 | 0.0 | 0.07 | 0.33 | 0.33 | 99 | 1006.6 |
| 20260509164857 | 48 | 202 | 0.0 | 1.0 | 0.00 | 0.32 | 0.32 | 99 | 1006.8 |
| 20260509164353 | 48 | 174 | 0.0 | 1.0 | 0.05 | 0.32 | 0.32 | 99 | 1006.6 |
| 20260509163849 | 48 | 205 | 0.0 | 1.0 | 0.05 | 0.32 | 0.32 | 99 | 1006.8 |
| 20260509163346 | 48 | 209 | 0.0 | 1.0 | 0.00 | 0.31 | 0.31 | 99 | 1006.9 |
| 20260509162845 | 48 | 43 | 0.0 | 1.0 | 0.07 | 0.31 | 0.31 | 99 | 1006.9 |
| 20260509162344 | 47 | 211 | 1.0 | 3.0 | 0.07 | 0.31 | 0.31 | 99 | 1007.1 |
| 20260509161840 | 47 | 231 | 0.0 | 0.0 | 0.05 | 0.30 | 0.30 | 99 | 1007.0 |
| 20260509161336 | 47 | 315 | 2.0 | 2.0 | 0.05 | 0.30 | 0.30 | 99 | 1006.9 |
| 20260509160833 | 47 | 207 | 1.0 | 2.0 | 0.07 | 0.29 | 0.29 | 99 | 1007.0 |
| 20260509160329 | 47 | 213 | 1.0 | 2.0 | 0.07 | 0.29 | 0.29 | 99 | 1007.3 |
| 20260509155824 | 47 | 193 | 1.0 | 1.0 | 0.05 | 0.28 | 0.28 | 99 | 1007.1 |
| 20260509155321 | 47 | 165 | 1.0 | 6.0 | 0.05 | 0.28 | 0.28 | 99 | 1007.4 |
| 20260509154817 | 47 | 167 | 1.0 | 2.0 | 0.07 | 0.27 | 0.27 | 99 | 1007.2 |
| 20260509154314 | 47 | 197 | 0.0 | 0.0 | 0.07 | 0.27 | 0.27 | 99 | 1007.4 |
| 20260509153811 | 47 | 159 | 1.0 | 2.0 | 0.12 | 0.26 | 0.26 | 99 | 1007.5 |
| 20260509153307 | 47 | 179 | 0.0 | 0.0 | 0.07 | 0.25 | 0.25 | 99 | 1007.7 |
| 20260509152804 | 47 | 217 | 0.0 | 0.0 | 0.07 | 0.24 | 0.24 | 99 | 1007.7 |
| 20260509152300 | 47 | 176 | 2.0 | 2.0 | 0.12 | 0.24 | 0.24 | 99 | 1007.7 |
| 20260509151757 | 46 | 131 | 1.0 | 2.0 | 0.12 | 0.23 | 0.23 | 99 | 1007.5 |
| 20260509151253 | 46 | 148 | 3.0 | 4.0 | 0.12 | 0.22 | 0.22 | 99 | 1007.7 |
| 20260509150752 | 46 | 207 | 0.0 | 0.0 | 0.05 | 0.21 | 0.21 | 99 | 1007.9 |
| 20260509150250 | 46 | 233 | 0.0 | 0.0 | 0.12 | 0.21 | 0.21 | 99 | 1007.9 |
| 20260509145747 | 46 | 233 | 0.0 | 1.0 | 0.12 | 0.20 | 0.20 | 99 | 1007.9 |
| 20260509145246 | 46 | 108 | 0.0 | 0.0 | 0.12 | 0.19 | 0.19 | 99 | 1008.0 |
| 20260509144743 | 46 | 227 | 0.0 | 0.0 | 0.19 | 0.18 | 0.18 | 99 | 1008.0 |
| 20260509144240 | 46 | 104 | 3.0 | 3.0 | 0.07 | 0.16 | 0.16 | 99 | 1007.9 |
| 20260509143737 | 46 | 185 | 1.0 | 2.0 | 0.05 | 0.15 | 0.15 | 99 | 1008.0 |
| 20260509143234 | 46 | 106 | 2.0 | 3.0 | 0.07 | 0.14 | 0.14 | 99 | 1008.0 |
| 20260509142730 | 46 | 224 | 0.0 | 4.0 | 0.12 | 0.14 | 0.14 | 99 | 1008.0 |
| 20260509142226 | 46 | 145 | 2.0 | 2.0 | 0.12 | 0.13 | 0.13 | 99 | 1008.0 |
| 20260509141722 | 46 | 83 | 0.0 | 1.0 | 0.07 | 0.12 | 0.12 | 99 | 1008.0 |
| 20260509141220 | 46 | 209 | 1.0 | 6.0 | 0.07 | 0.11 | 0.11 | 99 | 1007.8 |
| 20260509140716 | 46 | 241 | 0.0 | 2.0 | 0.12 | 0.11 | 0.11 | 99 | 1007.9 |
| 20260509140214 | 46 | 144 | 2.0 | 2.0 | 0.12 | 0.10 | 0.10 | 99 | 1007.8 |
| 20260509135711 | 46 | 192 | 0.0 | 1.0 | 0.07 | 0.09 | 0.09 | 99 | 1007.9 |
| 20260509135209 | 46 | 213 | 0.0 | 2.0 | 0.05 | 0.08 | 0.08 | 99 | 1007.9 |
| 20260509134705 | 46 | 259 | 0.0 | 2.0 | 0.12 | 0.08 | 0.08 | 99 | 1007.8 |
| 20260509134203 | 46 | 134 | 2.0 | 3.0 | 0.07 | 0.07 | 0.07 | 99 | 1007.9 |
| 20260509133700 | 46 | 229 | 0.0 | 2.0 | 0.05 | 0.06 | 0.06 | 99 | 1007.8 |
| 20260509133157 | 46 | 157 | 0.0 | 4.0 | 0.12 | 0.06 | 0.06 | 99 | 1007.9 |
| 20260509132655 | 46 | 141 | 2.0 | 4.0 | 0.07 | 0.05 | 0.05 | 99 | 1008.0 |
| 20260509132153 | 46 | 225 | 1.0 | 3.0 | 0.05 | 0.04 | 0.04 | 99 | 1007.8 |
| 20260509131649 | 46 | 8 | 1.0 | 2.0 | 0.05 | 0.04 | 0.04 | 99 | 1007.8 |
| 20260509131146 | 46 | 334 | 0.0 | 1.0 | 0.00 | 0.03 | 0.03 | 99 | 1008.0 |
| 20260509130641 | 46 | 104 | 1.0 | 2.0 | 0.07 | 0.03 | 0.03 | 99 | 1007.9 |
| 20260509130138 | 46 | 204 | 0.0 | 1.0 | 0.07 | 0.03 | 0.03 | 99 | 1007.7 |
| 20260509125635 | 46 | 194 | 1.0 | 2.0 | 0.00 | 0.02 | 0.02 | 99 | 1007.9 |
| 20260509125132 | 46 | 216 | 0.0 | 0.0 | 0.05 | 0.02 | 0.02 | 99 | 1007.7 |
| 20260509124628 | 46 | 229 | 0.0 | 0.0 | 0.05 | 0.02 | 0.02 | 99 | 1007.8 |
| 20260509124125 | 45 | 206 | 0.0 | 0.0 | 0.00 | 0.01 | 0.01 | 99 | 1007.8 |
| 20260509123623 | 45 | 216 | 0.0 | 0.0 | 0.00 | 0.01 | 0.01 | 99 | 1007.8 |
| 20260509123120 | 45 | 118 | 0.0 | 0.0 | 0.00 | 0.01 | 0.01 | 99 | 1007.7 |
| 20260509122615 | 45 | 179 | 0.0 | 0.0 | 0.00 | 0.01 | 0.01 | 99 | 1007.9 |
| 20260509122113 | 45 | 166 | 0.0 | 0.0 | 0.00 | 0.01 | 0.01 | 99 | 1008.0 |
| 20260509121609 | 45 | 186 | 0.0 | 1.0 | 0.00 | 0.01 | 0.01 | 99 | 1007.8 |
| 20260509121107 | 45 | 203 | 0.0 | 0.0 | 0.00 | 0.01 | 0.01 | 99 | 1008.0 |
| 20260509120605 | 45 | 216 | 0.0 | 0.0 | 0.00 | 0.01 | 0.01 | 99 | 1007.9 |
| 20260509115600 | 45 | 53 | 0.0 | 1.0 | 0.00 | 0.01 | 0.01 | 99 | 1008.0 |
| 20260509115058 | 45 | 168 | 2.0 | 3.0 | 0.07 | 0.01 | 0.01 | 99 | 1007.9 |
| 20260509114556 | 45 | 216 | 0.0 | 1.0 | 0.07 | 0.01 | 0.01 | 99 | 1008.1 |
| 20260509114054 | 45 | 220 | 0.0 | 0.0 | 0.00 | 0.00 | 0.00 | 99 | 1008.0 |
| 20260509113552 | 45 | 213 | 0.0 | 0.0 | 0.00 | 0.00 | 0.00 | 99 | 1008.2 |
| 20260509113050 | 44 | 189 | 0.0 | 1.0 | 0.00 | 0.00 | 0.00 | 99 | 1008.0 |
| 20260509112546 | 44 | 203 | 0.0 | 1.0 | 0.00 | 0.00 | 0.00 | 99 | 1008.3 |
| 20260509112043 | 44 | 200 | 0.0 | 0.0 | 0.00 | 0.00 | 0.00 | 99 | 1008.2 |
| 20260509111540 | 44 | 181 | 0.0 | 0.0 | 0.00 | 0.00 | 0.00 | 99 | 1008.3 |
| 20260509111037 | 44 | 202 | 0.0 | 0.0 | 0.00 | 0.00 | 0.00 | 99 | 1008.0 |
| 20260509110533 | 44 | 202 | 0.0 | 0.0 | 0.00 | 0.00 | 0.00 | 99 | 1008.3 |
| 20260509110031 | 44 | 177 | 0.0 | 1.0 | 0.00 | 0.42 | 0.42 | 99 | 1008.1 |
| 20260509105529 | 44 | 193 | 1.0 | 2.0 | 0.00 | 0.42 | 0.42 | 99 | 1008.1 |
| 20260509105026 | 44 | 174 | 1.0 | 2.0 | 0.07 | 0.42 | 0.42 | 99 | 1007.9 |
| 20260509104523 | 44 | 180 | 1.0 | 1.0 | 0.07 | 0.42 | 0.42 | 99 | 1008.0 |
| 20260509104020 | 44 | 208 | 0.0 | 1.0 | 0.00 | 0.41 | 0.41 | 99 | 1007.9 |
| 20260509103518 | 44 | 159 | 0.0 | 0.0 | 0.00 | 0.41 | 0.41 | 99 | 1007.8 |
| 20260509103016 | 44 | 186 | 1.0 | 2.0 | 0.05 | 0.41 | 0.41 | 99 | 1008.0 |
| 20260509102513 | 44 | 133 | 2.0 | 2.0 | 0.05 | 0.41 | 0.41 | 99 | 1008.1 |
| 20260509102009 | 44 | 205 | 0.0 | 1.0 | 0.07 | 0.40 | 0.40 | 99 | 1008.0 |
| 20260509101506 | 44 | 129 | 1.0 | 2.0 | 0.07 | 0.40 | 0.40 | 99 | 1008.2 |
| 20260509101003 | 44 | 218 | 0.0 | 2.0 | 0.00 | 0.39 | 0.39 | 99 | 1008.3 |
| 20260509100500 | 44 | 97 | 1.0 | 2.0 | 0.05 | 0.39 | 0.39 | 99 | 1008.2 |
| 20260509095957 | 44 | 174 | 1.0 | 2.0 | 0.07 | 0.38 | 0.38 | 99 | 1008.1 |
| 20260509095453 | 44 | 208 | 0.0 | 1.0 | 0.07 | 0.38 | 0.38 | 99 | 1008.1 |
| 20260509094950 | 44 | 198 | 0.0 | 2.0 | 0.05 | 0.37 | 0.37 | 99 | 1008.3 |
| 20260509094447 | 44 | 190 | 0.0 | 2.0 | 0.12 | 0.37 | 0.37 | 99 | 1008.2 |
| 20260509093944 | 44 | 201 | 0.0 | 0.0 | 0.12 | 0.36 | 0.36 | 99 | 1008.0 |
| 20260509093442 | 44 | 214 | 0.0 | 0.0 | 0.12 | 0.35 | 0.35 | 99 | 1008.2 |
| 20260509092939 | 44 | 189 | 0.0 | 1.0 | 0.19 | 0.34 | 0.34 | 99 | 1008.1 |
| 20260509092437 | 44 | 208 | 0.0 | 1.0 | 0.12 | 0.33 | 0.33 | 99 | 1008.2 |
| 20260509091936 | 44 | 219 | 0.0 | 0.0 | 0.05 | 0.31 | 0.31 | 99 | 1008.1 |
| 20260509091432 | 44 | 202 | 0.0 | 0.0 | 0.05 | 0.31 | 0.31 | 99 | 1008.2 |
| 20260509090929 | 44 | 187 | 0.0 | 0.0 | 0.00 | 0.30 | 0.30 | 99 | 1008.1 |
| 20260509090426 | 44 | 194 | 0.0 | 0.0 | 0.14 | 0.30 | 0.30 | 99 | 1007.9 |
| 20260509085924 | 44 | 209 | 0.0 | 0.0 | 0.12 | 0.29 | 0.29 | 99 | 1008.0 |
| 20260509085421 | 44 | 201 | 0.0 | 1.0 | 0.12 | 0.28 | 0.28 | 99 | 1008.2 |
| 20260509084917 | 44 | 201 | 0.0 | 0.0 | 0.12 | 0.27 | 0.27 | 99 | 1008.2 |
| 20260509084414 | 44 | 242 | 0.0 | 0.0 | 0.05 | 0.26 | 0.26 | 99 | 1008.0 |
| 20260509083912 | 44 | 217 | 0.0 | 0.0 | 0.07 | 0.25 | 0.25 | 99 | 1008.4 |
| 20260509083409 | 44 | 167 | 0.0 | 0.0 | 0.12 | 0.25 | 0.25 | 99 | 1008.6 |
| 20260509082905 | 44 | 203 | 0.0 | 0.0 | 0.05 | 0.24 | 0.24 | 99 | 1008.6 |
| 20260509082402 | 44 | 236 | 0.0 | 1.0 | 0.07 | 0.23 | 0.23 | 99 | 1008.6 |
| 20260509081859 | 44 | 88 | 1.0 | 2.0 | 0.12 | 0.23 | 0.23 | 99 | 1008.7 |
| 20260509081356 | 44 | 138 | 0.0 | 1.0 | 0.12 | 0.22 | 0.22 | 99 | 1008.6 |
| 20260509080854 | 44 | 207 | 0.0 | 2.0 | 0.12 | 0.21 | 0.21 | 99 | 1008.6 |
| 20260509080352 | 44 | 201 | 0.0 | 2.0 | 0.12 | 0.20 | 0.20 | 99 | 1008.6 |
| 20260509075850 | 44 | 199 | 0.0 | 0.0 | 0.12 | 0.19 | 0.19 | 99 | 1008.3 |
| 20260509075346 | 44 | 200 | 0.0 | 2.0 | 0.12 | 0.18 | 0.18 | 99 | 1008.7 |
| 20260509074844 | 44 | 127 | 2.0 | 2.0 | 0.14 | 0.17 | 0.17 | 99 | 1008.6 |
| 20260509074341 | 44 | 221 | 0.0 | 0.0 | 0.07 | 0.16 | 0.16 | 99 | 1008.8 |
| 20260509073837 | 44 | 206 | 1.0 | 4.0 | 0.05 | 0.15 | 0.15 | 99 | 1008.8 |
| 20260509073334 | 44 | 207 | 0.0 | 0.0 | 0.12 | 0.15 | 0.15 | 99 | 1008.9 |
| 20260509072831 | 44 | 228 | 0.0 | 0.0 | 0.07 | 0.14 | 0.14 | 99 | 1009.0 |
| 20260509072327 | 44 | 217 | 0.0 | 0.0 | 0.05 | 0.13 | 0.13 | 99 | 1008.7 |
| 20260509071824 | 44 | 209 | 1.0 | 2.0 | 0.12 | 0.13 | 0.13 | 99 | 1008.8 |
| 20260509071321 | 44 | 223 | 0.0 | 0.0 | 0.12 | 0.12 | 0.12 | 99 | 1008.9 |
| 20260509070818 | 44 | 199 | 0.0 | 1.0 | 0.05 | 0.11 | 0.11 | 99 | 1009.1 |
| 20260509070315 | 44 | 184 | 0.0 | 1.0 | 0.07 | 0.10 | 0.10 | 99 | 1009.1 |
| 20260509065811 | 44 | 193 | 0.0 | 1.0 | 0.12 | 0.10 | 0.10 | 99 | 1009.0 |
| 20260509065307 | 44 | 196 | 0.0 | 0.0 | 0.07 | 0.08 | 0.08 | 99 | 1009.1 |
| 20260509064803 | 44 | 199 | 0.0 | 0.0 | 0.05 | 0.07 | 0.07 | 99 | 1009.1 |
| 20260509064301 | 44 | 195 | 0.0 | 0.0 | 0.12 | 0.07 | 0.07 | 99 | 1008.9 |
| 20260509063758 | 43 | 206 | 0.0 | 0.0 | 0.12 | 0.06 | 0.06 | 99 | 1009.1 |
| 20260509063254 | 43 | 215 | 0.0 | 0.0 | 0.05 | 0.05 | 0.05 | 99 | 1008.8 |
| 20260509062752 | 43 | 215 | 0.0 | 0.0 | 0.07 | 0.04 | 0.04 | 99 | 1008.7 |
| 20260509062249 | 43 | 215 | 0.0 | 0.0 | 0.07 | 0.04 | 0.04 | 99 | 1008.9 |
| 20260509061746 | 43 | 214 | 0.0 | 0.0 | 0.07 | 0.03 | 0.03 | 99 | 1009.0 |
| 20260509061244 | 43 | 213 | 0.0 | 0.0 | 0.07 | 0.03 | 0.03 | 99 | 1008.9 |
| 20260509060741 | 43 | 213 | 0.0 | 0.0 | 0.05 | 0.02 | 0.02 | 98 | 1008.9 |
| 20260509060237 | 43 | 213 | 0.0 | 0.0 | 0.05 | 0.02 | 0.02 | 98 | 1009.1 |
| 20260509055733 | 43 | 202 | 0.0 | 0.0 | 0.07 | 0.01 | 0.01 | 97 | 1009.0 |
| 20260509055229 | 43 | 201 | 0.0 | 0.0 | 0.07 | 0.01 | 0.01 | 97 | 1009.1 |
| 20260509054726 | 43 | 201 | 0.0 | 0.0 | 0.00 | 0.00 | 0.00 | 96 | 1009.2 |
| 20260509054223 | 43 | 200 | 0.0 | 0.0 | 0.00 | 0.00 | 0.00 | 96 | 1009.0 |
| 20260509053721 | 43 | 202 | 0.0 | 0.0 | 0.00 | 0.00 | 0.00 | 95 | 1009.2 |
| 20260509053218 | 43 | 202 | 0.0 | 0.0 | 0.00 | 0.00 | 0.00 | 95 | 1009.2 |
| 20260509052716 | 43 | 202 | 0.0 | 0.0 | 0.00 | 0.00 | 0.00 | 95 | 1009.3 |
| 20260509052213 | 43 | 202 | 0.0 | 0.0 | 0.00 | 0.00 | 0.00 | 95 | 1009.2 |
| 20260509051711 | 43 | 201 | 0.0 | 0.0 | 0.00 | 0.00 | 0.00 | 95 | 1008.9 |
| 20260509051208 | 43 | 200 | 0.0 | 0.0 | 0.00 | 0.00 | 0.00 | 94 | 1009.1 |
| 20260509050705 | 43 | 205 | 0.0 | 0.0 | 0.00 | 0.00 | 0.00 | 94 | 1009.3 |
| 20260509050201 | 43 | 172 | 0.0 | 0.0 | 0.00 | 0.00 | 0.00 | 94 | 1009.2 |
| 20260509045659 | 43 | 203 | 0.0 | 0.0 | 0.00 | 0.00 | 0.00 | 93 | 1009.4 |
| 20260509045155 | 43 | 204 | 0.0 | 0.0 | 0.00 | 0.00 | 0.00 | 93 | 1009.4 |
| 20260509044653 | 43 | 201 | 0.0 | 0.0 | 0.00 | 0.00 | 0.00 | 92 | 1009.4 |
| 20260509044150 | 43 | 207 | 0.0 | 0.0 | 0.00 | 0.00 | 0.00 | 92 | 1009.4 |
| 20260509043646 | 43 | 191 | 0.0 | 0.0 | 0.00 | 0.00 | 0.00 | 92 | 1009.4 |
| 20260509043142 | 43 | 201 | 0.0 | 0.0 | 0.00 | 0.00 | 0.00 | 92 | 1009.4 |
| 20260509042639 | 43 | 207 | 0.0 | 0.0 | 0.00 | 0.00 | 0.00 | 92 | 1009.4 |
| 20260509042135 | 42 | 207 | 0.0 | 0.0 | 0.00 | 0.00 | 0.00 | 92 | 1009.6 |
| 20260509041632 | 43 | 193 | 1.0 | 2.0 | 0.00 | 0.00 | 0.00 | 92 | 1009.5 |
| 20260509041129 | 42 | 208 | 0.0 | 0.0 | 0.00 | 0.00 | 0.00 | 92 | 1009.7 |
| 20260509040628 | 42 | 208 | 0.0 | 0.0 | 0.00 | 0.00 | 0.00 | 92 | 1009.7 |
| 20260509040124 | 42 | 208 | 0.0 | 0.0 | 0.00 | 0.00 | 0.00 | 92 | 1009.4 |
| 20260509035621 | 42 | 207 | 0.0 | 0.0 | 0.00 | 0.00 | 0.00 | 92 | 1009.5 |
| 20260509035117 | 42 | 190 | 0.0 | 0.0 | 0.00 | 0.00 | 0.00 | 92 | 1009.3 |
| 20260509034616 | 42 | 220 | 0.0 | 0.0 | 0.00 | 0.00 | 0.00 | 92 | 1009.3 |
| 20260509034112 | 42 | 220 | 0.0 | 0.0 | 0.00 | 0.00 | 0.00 | 92 | 1009.5 |
| 20260509033609 | 42 | 220 | 0.0 | 0.0 | 0.00 | 0.00 | 0.00 | 92 | 1009.5 |
| 20260509033106 | 42 | 220 | 0.0 | 0.0 | 0.00 | 0.00 | 0.00 | 92 | 1009.5 |
| 20260509032604 | 42 | 220 | 0.0 | 0.0 | 0.00 | 0.00 | 0.00 | 92 | 1009.4 |
| 20260509032100 | 42 | 220 | 0.0 | 0.0 | 0.00 | 0.00 | 0.00 | 92 | 1009.6 |
| 20260509031558 | 42 | 220 | 0.0 | 0.0 | 0.00 | 0.00 | 0.00 | 91 | 1009.7 |
| 20260509031055 | 42 | 221 | 0.0 | 0.0 | 0.00 | 0.00 | 0.00 | 91 | 1009.7 |
| 20260509030554 | 42 | 221 | 0.0 | 0.0 | 0.00 | 0.00 | 0.00 | 91 | 1009.7 |
| 20260509030050 | 42 | 221 | 0.0 | 0.0 | 0.00 | 0.00 | 0.00 | 91 | 1009.6 |
| 20260509025546 | 42 | 221 | 0.0 | 0.0 | 0.00 | 0.00 | 0.00 | 90 | 1009.6 |
| 20260509025042 | 42 | 221 | 0.0 | 0.0 | 0.00 | 0.00 | 0.00 | 90 | 1009.7 |
| 20260509024538 | 42 | 221 | 0.0 | 0.0 | 0.00 | 0.00 | 0.00 | 89 | 1009.5 |
| 20260509024034 | 42 | 221 | 0.0 | 0.0 | 0.00 | 0.00 | 0.00 | 89 | 1009.5 |
| 20260509023532 | 42 | 221 | 0.0 | 0.0 | 0.00 | 0.00 | 0.00 | 89 | 1009.8 |
| 20260509023028 | 42 | 221 | 0.0 | 0.0 | 0.00 | 0.00 | 0.00 | 89 | 1009.5 |
| 20260509022525 | 42 | 221 | 0.0 | 0.0 | 0.00 | 0.00 | 0.00 | 89 | 1009.6 |